Погода в Першине

Россия / Владимирская область     56°08′05″N   38°44′11″E
темп.,
°C
ветер,
м/с
пор.,
м/с
влажн.,
%
обл.,
%
осадки,
мм/ч
давл.,
гПа
погр.,
м
21 июня, пн
пн2100:00+19ююз259312 0.0 102192
03:00+18юз239499 0.0 102146
06:00+20юз13847 0.0 1021106
09:00+25ююз2364100 0.0 1021602
12:00+28ююз224976 0.0 10211245
15:00+30ююз233796 0.0 10201668
18:00+28ююз2456100 0.0 1020203
21:00+21ююз2384100 0.0 102153
22 июня, вт
вт2200:00+19ююз228844 0.0 102114
03:00+17ю119467 0.0 102211
06:00+20ю138887 0.0 1022104
09:00+26ю22635 0.0 1022601
12:00+29ю23470 0.0 10211495
15:00+31ююз23403 0.0 10201895
18:00+30ююз24525 0.0 1020347
21:00+23ююз36802 0.0 1020111
23 июня, ср
ср2300:00+21юз238441 0.0 102154
03:00+20юз228996 0.0 102121
06:00+22юз128391 0.1 102283
09:00+28юз11597 0.1 1022504
12:00+31ю114521 0.0 10211434
15:00+32ю2239100 0.0 10201959
18:00+31ююз125422 0.0 1020147
21:00+23зюз22766 0.0 102027
24 июня, чт
чт2400:00+21юз11775 0.0 102011
03:00+20юз11815 0.0 102011
06:00+22зюз13815 0.0 102092
09:00+28юз235658 0.0 1020559
12:00+31ююз24435 0.0 10191590
15:00+32ююз343723 0.0 10182094
18:00+30юз35470 0.0 1017402
21:00+23ююз24720 0.0 101663
25 июня, пт
пт2500:00+21зюз23820 0.0 101755
03:00+19сз12853 0.1 101715
06:00+22ююз12813 0.0 101685
09:00+28з24540 0.0 1016642
12:00+31зсз23414 0.0 10161680
15:00+32ссв32423 0.0 10141892
18:00+18сз1493100 25.6 101493
21:00+19зюз119698 25.7 101521